Tracking 17154 objects as of 3-August-2015
HD Live streaming from Space Station

METEOSAT 9 (MSG 2)

Track METEOSAT 9 (MSG 2) now!
METEOSAT 9 (MSG 2) is classified as:


NORAD ID: 28912
Int'l Code: 2005-049B
Perigee: 35,794.5 km
Apogee: 35,797.4 km
Inclination: 0.9 °
Period: 1,436.2 minutes
Semi major axis: 42166 km
RCS: 2.0767 m2 (large)
Launch date: December 21, 2005
Source: European Organisation for the Exploitation of Meteorological Satellites (EUME)
Your satellite tracking list
Your tracking list is empty





NASA's NSSDC Master Catalog

Two Line Element Set (TLE):
1 28912U 05049B   15214.18557124  .00000046  00000-0  00000+0 0  9995
2 28912 000.9008 059.9952 0000344 192.8129 134.0560 01.00263779 35252

Source of the keplerian elements: AFSPC

N2YO: 299